Location: Carrer del Canonge
(41.4901°N, 2.2931°E)
Time: 04:42:20
(UTC+00:00)

ATLAS 3B R/B - Pass Details

Date: 18 September 2020
Orbit: 1016 x 1179 km, 63.8° (Epoch: 04 October)

Event Time Altitude Azimuth Distance (km) Brightness Sun altitude
Rises 19:31:48 0° 328° (NNW) 3,810 6.4 -18.7°
Reaches altitude 10° 19:35:29 10° 348° (NNW) 2,881 5.4 -19.3°
Maximum altitude 19:39:51 18° 28° (NNE) 2,401 4.5 -20.1°
Enters shadow 19:42:49 14° 57° (ENE) 2,664 4.4 -20.6°
